Ionia, MI

7:19 PM EST on December 03, 2016 (GMT -0500)
Ionia

Weather History for KY70 - September, 2013

Change the Weather History Date:

Monday, September 2, 2013

  Actual Average (KGRR) Record (KGRR)
Temperature  
Mean Temperature 65 °F 68 °F  
Max Temperature 71 °F 78 °F 98 °F (1913)
Min Temperature 59 °F 58 °F 37 °F (1943)
Degree Days  
Heating Degree Days 0 1  
Month to date heating degree days 2  
Since 1 July heating degree days 22  
Cooling Degree Days 0 4  
Month to date cooling degree days 8  
Year to date cooling degree days 633  
Growing Degree Days 15 (Base 50)    
Moisture  
Dew Point 58 °F    
Average Humidity 76    
Maximum Humidity 95    
Minimum Humidity 56    
Precipitation  
Precipitation 0.00 in 0.14 in 2.17 in (1923)
Month to date precipitation 0.27  
Year to date precipitation 24.99  
Snow  
Snow 0.00 in 0.00 in 0.00 in ()
Month to date snowfall 0.0  
Since 1 July snowfall 0.0  
Since 1 September snowfall 0.0  
Snow Depth -    
Sea Level Pressure  
Sea Level Pressure 29.87 in    
Wind  
Wind Speed 7 mph (NW)    
Max Wind Speed 17 mph    
Max Gust Speed 24 mph    
Visibility 9 miles    
Events      
T = Trace of Precipitation, MM = Missing Value Source: NWS Daily Summary

Daily Weather History Graph

Daily Weather History Graph

Search for Another Location

Airport or City:

Trip Planner

Search our weather history database for the weather conditions in past years. The results will help you decide how hot, cold, wet, or windy it might be!

Date:

Astronomy

Sep. 02, 2013 Rise Set
Actual Time 7:06 AM EDT 8:12 PM EDT
Civil Twilight 6:36 AM EDT 8:41 PM EDT
Nautical Twilight 6:02 AM EDT 9:16 PM EDT
Astronomical Twilight 5:25 AM EDT 9:52 PM EDT
Moon 4:19 AM EDT (9/2) 6:27 PM EDT (9/2)
Length of Visible Light 14h 04m
Length of Day
13h 06m
Waning Crescent, 8% of the Moon is Illuminated
Sep 2
Waning Crescent
Sep 5
New
Sep 12
First Quarter
Sep 19
Full
Sep 26
Last Quarter

Hourly Weather History & Observations

Time (EDT) Temp. Dew Point Humidity Pressure Visibility Wind Dir Wind Speed Gust Speed Precip Events Conditions
12:14 AM 70.7 °F 68.2 °F 92% 29.77 in 10.0 mi West 5.8 mph - N/A   Mostly Cloudy
12:34 AM 70.3 °F 68.0 °F 92% 29.77 in 10.0 mi West 4.6 mph - N/A   Mostly Cloudy
12:54 AM 70.0 °F 67.8 °F 93% 29.77 in 7.0 mi WNW 3.5 mph - N/A   Scattered Clouds
1:14 AM 69.8 °F 67.6 °F 93% 29.77 in 7.0 mi Calm Calm - N/A   Clear
1:34 AM 69.8 °F 68.0 °F 94% 29.78 in 7.0 mi WNW 4.6 mph - N/A   Scattered Clouds
1:54 AM 70.3 °F 68.4 °F 93% 29.78 in 7.0 mi WNW 5.8 mph - N/A   Overcast
2:14 AM 70.2 °F 68.2 °F 93% 29.78 in 7.0 mi WNW 6.9 mph - N/A   Overcast
2:34 AM 70.2 °F 68.2 °F 93% 29.77 in 7.0 mi NW 6.9 mph - N/A   Overcast
2:54 AM 69.4 °F 68.0 °F 95% 29.77 in 5.0 mi NW 5.8 mph - N/A   Scattered Clouds
3:14 AM 69.8 °F 68.0 °F 94% 29.77 in 5.0 mi NW 5.8 mph - N/A   Mostly Cloudy
3:34 AM 69.4 °F 67.6 °F 94% 29.78 in 7.0 mi NW 5.8 mph - N/A   Overcast
3:54 AM 69.1 °F 67.3 °F 94% 29.77 in 7.0 mi NNW 3.5 mph - N/A   Overcast
4:14 AM 68.2 °F 66.6 °F 95% 29.77 in 7.0 mi NNW 4.6 mph - N/A   Scattered Clouds
4:34 AM 67.5 °F 65.8 °F 95% 29.78 in 7.0 mi NW 3.5 mph - N/A   Clear
4:54 AM 67.1 °F 65.5 °F 95% 29.78 in 7.0 mi NNW 5.8 mph - N/A   Scattered Clouds
5:14 AM 66.4 °F 64.6 °F 94% 29.79 in 10.0 mi NNW 5.8 mph - N/A   Scattered Clouds
5:34 AM 66.0 °F 63.0 °F 90% 29.79 in 10.0 mi NNW 5.8 mph - N/A   Clear
5:54 AM 64.6 °F 62.1 °F 92% 29.79 in 10.0 mi North 5.8 mph - N/A   Clear
6:14 AM 64.4 °F 61.7 °F 91% 29.80 in 10.0 mi North 6.9 mph - N/A   Scattered Clouds
6:34 AM 63.5 °F 61.5 °F 93% 29.82 in 10.0 mi North 5.8 mph - N/A   Scattered Clouds
6:54 AM 63.1 °F 61.0 °F 93% 29.82 in 10.0 mi NNW 4.6 mph - N/A   Scattered Clouds
7:14 AM 62.4 °F 60.6 °F 94% 29.83 in 10.0 mi North 4.6 mph - N/A   Mostly Cloudy
7:34 AM 62.4 °F 60.6 °F 94% 29.85 in 10.0 mi North 4.6 mph - N/A   Mostly Cloudy
7:54 AM 63.5 °F 60.8 °F 91% 29.85 in 10.0 mi NNW 5.8 mph - N/A   Overcast
8:14 AM 62.4 °F 59.0 °F 89% 29.86 in 10.0 mi NW 9.2 mph - N/A   Overcast
8:34 AM 62.2 °F 57.6 °F 85% 29.87 in 10.0 mi North 9.2 mph - N/A   Mostly Cloudy
8:54 AM 62.8 °F 57.6 °F 83% 29.87 in 10.0 mi NNW 5.8 mph - N/A   Scattered Clouds
9:14 AM 63.7 °F 57.4 °F 80% 29.87 in 10.0 mi NNW 5.8 mph - N/A   Scattered Clouds
9:34 AM 64.6 °F 56.7 °F 75% 29.88 in 10.0 mi NNW 8.1 mph - N/A   Scattered Clouds
9:54 AM 65.5 °F 56.5 °F 73% 29.88 in 10.0 mi NNW 10.4 mph 18.4 mph N/A   Clear
10:14 AM 66.9 °F 57.2 °F 71% 29.88 in 10.0 mi NW 10.4 mph 17.3 mph N/A   Clear
10:34 AM 67.8 °F 56.8 °F 68% 29.88 in 10.0 mi NNW 9.2 mph 16.1 mph N/A   Clear
10:54 AM 69.3 °F 57.6 °F 66% 29.89 in 10.0 mi NNW 9.2 mph - N/A   Clear
11:14 AM 68.7 °F 56.3 °F 64% 29.88 in 10.0 mi NW 10.4 mph 16.1 mph N/A   Clear
11:34 AM 69.4 °F 57.0 °F 65% 29.89 in 10.0 mi NW 8.1 mph 17.3 mph N/A   Scattered Clouds
11:54 AM 69.8 °F 56.5 °F 63% 29.89 in 10.0 mi NW 12.7 mph 18.4 mph N/A   Mostly Cloudy
12:14 PM 70.3 °F 56.1 °F 61% 29.89 in 10.0 mi NNW 9.2 mph 16.1 mph N/A   Mostly Cloudy
12:34 PM 71.1 °F 55.9 °F 59% 29.89 in 10.0 mi WNW 13.8 mph 21.9 mph N/A   Overcast
12:54 PM 70.2 °F 55.4 °F 59% 29.89 in 10.0 mi WNW 17.3 mph 23.0 mph N/A   Overcast
1:14 PM 70.7 °F 54.9 °F 57% 29.89 in 10.0 mi NW 13.8 mph 20.7 mph N/A   Overcast
1:34 PM 71.2 °F 55.9 °F 58% 29.89 in 10.0 mi WNW 15.0 mph 20.7 mph N/A   Mostly Cloudy
1:54 PM 71.6 °F 55.6 °F 57% 29.89 in 10.0 mi WNW 15.0 mph 24.2 mph N/A   Mostly Cloudy
2:14 PM 70.9 °F 55.6 °F 58% 29.89 in 10.0 mi NW 11.5 mph 19.6 mph N/A   Overcast
2:34 PM 70.2 °F 56.3 °F 61% 29.89 in 10.0 mi NW 13.8 mph 19.6 mph N/A   Overcast
2:54 PM 69.6 °F 55.8 °F 61% 29.89 in 10.0 mi WNW 12.7 mph 17.3 mph N/A   Overcast
3:14 PM 69.4 °F 54.7 °F 59% 29.89 in 10.0 mi WNW 15.0 mph 18.4 mph N/A   Overcast
3:34 PM 70.2 °F 55.4 °F 59% 29.89 in 10.0 mi NW 11.5 mph 18.4 mph N/A   Overcast
3:54 PM 68.5 °F 53.6 °F 59% 29.89 in 10.0 mi NW 12.7 mph 23.0 mph N/A   Overcast
4:14 PM 69.3 °F 53.8 °F 58% 29.89 in 10.0 mi NW 15.0 mph 19.6 mph N/A   Overcast
4:34 PM 70.0 °F 53.8 °F 56% 29.89 in 10.0 mi NW 15.0 mph 21.9 mph N/A   Mostly Cloudy
4:54 PM 69.1 °F 53.2 °F 57% 29.89 in 10.0 mi NW 12.7 mph 21.9 mph N/A   Mostly Cloudy
5:14 PM 67.8 °F 53.6 °F 60% 29.90 in 10.0 mi NNW 11.5 mph 18.4 mph N/A   Overcast
5:34 PM 65.8 °F 53.4 °F 64% 29.90 in 10.0 mi NNW 10.4 mph - N/A   Overcast
5:54 PM 65.7 °F 53.4 °F 65% 29.90 in 10.0 mi NNW 5.8 mph - N/A   Overcast
6:14 PM 65.1 °F 53.1 °F 65% 29.91 in 10.0 mi NNW 8.1 mph 20.7 mph N/A   Overcast
6:34 PM 64.2 °F 52.0 °F 64% 29.92 in 10.0 mi NNW 9.2 mph 20.7 mph N/A   Overcast
6:54 PM 63.7 °F 52.0 °F 66% 29.92 in 10.0 mi NW 11.5 mph 18.4 mph N/A   Overcast
7:14 PM 63.0 °F 51.4 °F 66% 29.92 in 10.0 mi NW 9.2 mph 17.3 mph N/A   Overcast
7:34 PM 62.4 °F 51.8 °F 68% 29.92 in 10.0 mi NNW 10.4 mph - N/A   Overcast
7:54 PM 61.3 °F 51.4 °F 70% 29.92 in 10.0 mi NNW 9.2 mph 18.4 mph N/A   Overcast
8:14 PM 61.2 °F 51.3 °F 70% 29.92 in 10.0 mi NNW 5.8 mph - N/A   Overcast
8:34 PM 61.0 °F 50.5 °F 68% 29.92 in 10.0 mi NW 6.9 mph - N/A   Overcast
8:54 PM 61.2 °F 50.7 °F 69% 29.93 in 10.0 mi NW 9.2 mph 17.3 mph N/A   Overcast
9:14 PM 60.4 °F 51.1 °F 71% 29.94 in 10.0 mi NNW 6.9 mph - N/A   Overcast
9:34 PM 60.6 °F 50.7 °F 70% 29.94 in 10.0 mi NNW 5.8 mph - N/A   Overcast
9:54 PM 60.8 °F 50.7 °F 69% 29.95 in 10.0 mi NNW 3.5 mph - N/A   Overcast
10:14 PM 60.6 °F 51.1 °F 71% 29.95 in 10.0 mi NW 8.1 mph - N/A   Overcast
10:34 PM 60.1 °F 51.8 °F 74% 29.95 in 10.0 mi NW 8.1 mph - N/A   Overcast
10:54 PM 59.2 °F 51.8 °F 77% 29.96 in 10.0 mi NNW 8.1 mph - N/A   Overcast
11:14 PM 59.0 °F 52.7 °F 80% 29.97 in 10.0 mi NW 3.5 mph - N/A   Overcast
11:34 PM 59.2 °F 52.7 °F 79% 29.96 in 10.0 mi NW 4.6 mph - N/A   Overcast
11:54 PM 59.9 °F 52.9 °F 78% 29.96 in 10.0 mi WNW 6.9 mph - N/A   Overcast